Regional Weather Roundup
Issued by NWS

Home | Current Version | Previous Version | Graphics & Text | Print | Product List | Glossary On
Versions: 1 2 3 4 5 6 7 8 9 10 11 12 13 14 15 16 17 18 19 20 21 22 23 24 25 26 27 28 29 30 31 32 33 34 35 36 37 38 39 40 41 42 43 44 45 46 47 48 49 50
000
ASUS43 KLMK 060210
RWRKY
KENTUCKY REGIONAL WEATHER ROUNDUP
NATIONAL WEATHER SERVICE LOUISVILLE KY
1000 PM EDT TUE MAY 05 2015

NOTE "FAIR" INDICATES FEW OR NO CLOUDS BELOW 12,000 FEET
WITH NO SIGNIFICANT WEATHER AND/OR OBSTRUCTIONS TO VISIBILITY.

KYZ001>023-026-027-061>063-070>075-060300-
WESTERN AND SOUTH CENTRAL KENTUCKY

CITY           SKY/WX    TMP DP  RH WIND       PRES   REMARKS
PADUCAH        CLEAR     74  53  48 S3        30.15R
HENDERSON      CLEAR     70  50  49 SE6       30.15S
OWENSBORO      CLEAR     73  56  55 CALM      30.17R
HOPKINSVILLE   CLEAR     73  55  54 S2        30.18R
BOWLING GREEN  CLEAR     71  55  56 CALM      30.19R
GLASGOW        CLEAR     67  55  66 CALM      30.20R
$$

KYZ024-025-028>034-038-045-046-053-060300-
NORTH CENTRAL KENTUCKY

CITY           SKY/WX    TMP DP  RH WIND       PRES   REMARKS
LOUISVILLE/SDF CLEAR     76  53  44 SE3       30.19R
LOUISVILLE/LOU CLEAR     73  53  49 CALM      30.19R
FORT KNOX      CLEAR     66  53  64 CALM      30.18R
$$

KYZ035>037-039>044-047>052-055>060-089>105-060300-
NORTHEAST KENTUCKY

CITY           SKY/WX    TMP DP  RH WIND       PRES   REMARKS
LEXINGTON      CLEAR     69  57  65 S6        30.22R
COVINGTON      CLEAR     66  55  67 S3        30.20R
FRANKFORT      CLEAR     66  54  65 CALM      30.19S
$$

KYZ054-064>069-076>088-106>120-060300-
SOUTHEAST KENTUCKY

CITY           SKY/WX    TMP DP  RH WIND       PRES   REMARKS
JACKSON        CLEAR     73  50  44 CALM      30.24R
LONDON         CLEAR     68  53  58 CALM      30.22R
SOMERSET       CLEAR     66  54  63 CALM      30.23R
MIDDLESBORO    CLEAR     66  54  65 CALM      30.24R
MONTICELLO     CLEAR     64  56  75 CALM      30.24R
$$




USA.gov is the U.S. government's official web portal to all federal, state and local government web resources and services.